Regional Weather Roundup
Issued by NWS Upton, NY

Current Version | Previous Version | Graphics & Text | Print | Product List | Glossary Off
Versions: 1 2 3 4 5 6 7 8 9 10 11 12 13 14 15 16 17 18 19 20 21 22 23 24 25 26 27

000
ASUS41 KOKX 191308
RWROKX

REGIONAL WEATHER ROUNDUP
NATIONAL WEATHER SERVICE NEW YORK NY
900 AM EDT THU OCT 19 2017

NOTE: "FAIR" INDICATES FEW OR NO CLOUDS BELOW 12,000 FEET WITH NO
SIGNIFICANT WEATHER AND/OR OBSTRUCTIONS TO VISIBILITY.

NYZ071-072-176-178-NJZ106-104-191400-
NEW YORK CITY METRO AREA

CITY           SKY/WX    TMP DP  RH WIND       PRES   REMARKS
Central Park   SUNNY     59  45  59 VRB5      30.28R
Bronx Bot Gard   N/A     61  45  55 S2        30.26R
LaGuardia APRT MOSUNNY   62  46  55 SW7       30.25R
Kennedy INTL   MOSUNNY   60  53  77 SW12      30.28R
Breezy Point     N/A     57 N/A N/A W8G14       N/A
Newark/Liberty MOSUNNY   56  47  71 SW6       30.26R
Teterboro      SUNNY     55  49  80 S5        30.24S
$$

NYZ177-179-078>081-191400-
LONG ISLAND NEW YORK

CITY           SKY/WX    TMP DP  RH WIND       PRES   REMARKS
Jones Beach      N/A     61 N/A N/A W10         N/A
Matinecock PT    N/A     59 N/A N/A SW7         N/A
Farmingdale    SUNNY     59  52  77 SW7       30.26S
MacArthur/ISP  MOSUNNY   60  55  83 SW6       30.25F
Shirley        SUNNY     61  56  83 SW5       30.26S
Mt Sinai Harb    N/A    N/A N/A N/A SW5         N/A
Westhampton    SUNNY     55  52  89 CALM      30.27F
East Hampton   FAIR      56  53  87 MISG      30.26S
Montauk          N/A     64  57  78 VRB3      30.27S
$$

NYZ052-065-067-191400-
HUDSON VALLEY

CITY           SKY/WX    TMP DP  RH WIND       PRES   REMARKS
White Plains   MOSUNNY   58  47  66 VRB5      30.24R
Larchmont Harb   N/A     59 N/A N/A S7          N/A
Croton On Huds   N/A     55 N/A N/A CALM        N/A
Newburgh       MOSUNNY   50  48  93 CALM      30.25R
Montgomery     SUNNY     50  47  89 S3        30.23R
Poughkeepsie   MOSUNNY   50  46  86 CALM      30.23R
Albany         MOSUNNY   53  46  77 S7        30.18S
$$

NJZ001-105-106-008-010-013-015-019>022-104-191400-
NEW JERSEY

CITY           SKY/WX    TMP DP  RH WIND       PRES   REMARKS
Newark/Liberty MOSUNNY   56  47  71 SW6       30.26R
Teterboro      SUNNY     55  49  80 S5        30.24S
Caldwell       SUNNY     50  47  89 W5        30.26S
Somerville     SUNNY     45  43  93 MISG      30.25S
Linden         FAIR      54  47  79 CALM      30.27S
Perth Amboy      N/A     52 N/A N/A W5          N/A
Sussex         SUNNY     47  46  97 CALM      30.24S
Andover          N/A     47  47 100 CALM      30.25S
Trenton        SUNNY     51  48  89 CALM      30.26S
Millville      SUNNY     55  53  93 CALM      30.29R
Atlantic City  SUNNY     56  51  84 SW3       30.29R
Wrightstown    MOSUNNY   55  50  82 W5        30.27R
Toms River       N/A     51  48  89 CALM      30.29R
Belmar         MOSUNNY   51  46  83 SW6       30.29R
$$

PAZ047>061-062-071-191400-
EASTERN PENNSYLVANIA

CITY           SKY/WX    TMP DP  RH WIND       PRES   REMARKS
Philadelphia   MOSUNNY   54  50  86 SW7       30.28S
Allentown      SUNNY     47  44  90 CALM      30.26R
Scranton       SUNNY     51  46  83 CALM      30.22S
$$

CTZ002-004>006-009-010-012-RIZ004-006-007-MAZ004-011-015-191400-
SOUTHERN NEW ENGLAND
 IN CT

CITY           SKY/WX    TMP DP  RH WIND       PRES   REMARKS
Bradley INTL   PTSUNNY   52  49  89 S6        30.23S
Hartford       SUNNY     56  51  84 S6        30.23S
Danbury        SUNNY     51  48  89 CALM      30.25S
Wtrbury/Oxford SUNNY     53  47  79 SW3       30.25R
Norwalk Harbor   N/A     54 N/A N/A NW2         N/A
Bridgeport     SUNNY     58  50  75 W3        30.25R
Meriden        SUNNY     50  48  93 CALM      30.24S
New Haven      MOSUNNY   55  53  93 CALM      30.25R
Chester        FAIR      61  55  82 VRB5      30.25S
Groton         SUNNY     62  53  72 SW10      30.25S
Wilimantic     FOG       43  43 100 CALM      30.26S VSB 1/4

 IN RI

CITY           SKY/WX    TMP DP  RH WIND       PRES   REMARKS
Providence     MOSUNNY   57  55  93 CALM      30.25F
Block Island   SUNNY     64  59  83 SW14      30.27S
Westerly       SUNNY     55  51  86 CALM      30.26S
 IN MA

CITY           SKY/WX    TMP DP  RH WIND       PRES   REMARKS
Boston         MOSUNNY   58  53  84 S7        30.22S
Worcester      SUNNY     57  45  64 SW13      30.21S
Westfield      SUNNY     46  45  96 S5        30.22S
Provincetown   PTSUNNY   59  59 100 S12       30.25F
Nantucket      SUNNY     62  61  96 SW10      30.28R
$$

ANZ330-335-338-340-345-350-353-355-191400-
COASTAL MARINE OBSERVATIONS


STATION/POSITION TIME  SKY/WX   TEMP    WIND        PRES    VSBY  WAVE
                                AIR SEA DIR/SP/G                  HT/PER
                 (UTC)          (F)     (DEG/KT/KT) (MB)    (MI)  (FT/S)
NY HARB ENTRANCE 1150            61 65  240/ 12/ 14 1024.0          3/10
20 S FIRE ISLAND 1150            63 63  250/ 10/ 12 1024.9          3/ 9
GREAT SOUTH BAY  1215            61 61  240/  6/  8   N/A
15 E BARNEGAT LI 1230               66                N/A           3/ 9
HUDSON CANYON    1150            63 64  210/  8/ 10 1025.1          3/10
KINGS POINT      1248            59 65  240/  7/  8 1025.2
EXECUTION ROCKS  1230            66     180/  8/ 10   N/A
WESTERN LI SOUND 1149            60     210/ 10/ 12   N/A           0
CENTRAL LI SOUND 1215            62     230/ 12/ 14   N/A           1
EASTERN LI SOUND NOT AVBL
ROBBINS REEF     1248            57     260/  7/  9 1025.3
$$


>>>>>>>>>>>>>>>>>>>>>>>>>>>> KEY <<<<<<<<<<<<<<<<<<<<<<<<<<<
>                                                          <
>     SKY/WX - Sky Condition/Present Weather               <
>     TMP    - Temperature in Fahrenheit                   <
>     DP     - Dew Point in Fahrenheit                     <
>     RH     - Relative Humidity in Percent                <
>     WIND   - Direction (from) and Speed in MPH           <
>     PRES   - Mean Sea Level Pressure (inches of Hg)      <
>     WCI    - Wind Chill Index                            <
>     VSB    - VISIBILITY IN MILES                         <
>     HX     - HEAT INDEX                                  <
>     TC     - TEMPERATURE IN CELSIUS                      <
>     VRB    - VARIABLE WIND DIRECTION                     <
>                                                          <
>>>>>>>>>>>>>>>>>>>>>>>>>>>> KEY <<<<<<<<<<<<<<<<<<<<<<<<<<<




USA.gov is the U.S. government's official web portal to all federal, state and local government web resources and services.